Location: Newark
(11.4947°N, 0.1467°E)
Time: 13:54:59
(UTC+00:00)

Hubble Space Telescope - Pass Details

Date: 18 November 2019
Orbit: 536 x 540 km, 28.5° (Epoch: 15 December)

Event Time Altitude Azimuth Distance (km) Brightness Sun altitude
Rises 18:09:50 0° 279° (W) 2,666 5.6 -9.6°
Reaches altitude 10° 18:12:44 10° 300° (WNW) 1,777 4.1 -10.3°
Maximum altitude 18:15:27 17° 341° (NNW) 1,395 2.9 -11.0°
Drops below altitude 10° 18:18:10 10° 23° (NNE) 1,778 3.0 -11.6°
Enters shadow 18:18:39 - 28° (NNE) 1,907 3.2 -11.7°
